GW6119 Weather Reports


time (UTC)temp
C
wind
direction
speed
KPH
gust
KPH
rain 1hr
cm
rain 24hr
cm
rain mn
cm
humidity
%
barometer
mb
20260504034600 8 145 1.6 3.2 0.00 0.00 0.00 63 1015.9
20260504034056 7 71 3.2 4.8 0.00 0.00 0.00 64 1016.1
20260504033555 7 145 0.0 0.0 0.00 0.00 0.00 66 1016.2
20260504033052 7 240 0.0 0.0 0.00 0.00 0.00 67 1016.3
20260504032549 7 91 0.0 0.0 0.00 0.00 0.00 64 1016.0
20260504032045 7 188 1.6 3.2 0.00 0.00 0.00 63 1016.1
20260504031542 7 130 0.0 0.0 0.00 0.00 0.00 62 1015.9
20260504031038 7 162 0.0 0.0 0.00 0.00 0.00 64 1016.1
20260504030536 7 162 0.0 0.0 0.00 0.00 0.00 63 1016.2
20260504030032 7 167 0.0 0.0 0.00 0.00 0.00 66 1016.1
20260504025529 7 170 0.0 0.0 0.00 0.00 0.00 68 1016.1
20260504025026 7 166 0.0 0.0 0.00 0.00 0.00 62 1016.3
20260504024523 7 156 0.0 0.0 0.00 0.00 0.00 63 1016.1
20260504024020 7 154 0.0 0.0 0.00 0.00 0.00 61 1015.9
20260504023516 6 137 0.0 0.0 0.00 0.00 0.00 63 1015.8
20260504023012 6 162 0.0 0.0 0.00 0.00 0.00 65 1016.1
20260504022508 6 167 0.0 0.0 0.00 0.00 0.00 66 1016.1
20260504022005 6 179 0.0 0.0 0.00 0.00 0.00 66 1016.0
20260504021503 6 165 0.0 0.0 0.00 0.00 0.00 63 1015.9
20260504020959 6 165 0.0 0.0 0.00 0.00 0.00 63 1015.6
20260504020456 6 163 0.0 0.0 0.00 0.00 0.00 62 1015.7
20260504015953 6 127 0.0 0.0 0.00 0.00 0.00 60 1015.7
20260504015449 6 129 0.0 0.0 0.00 0.00 0.00 57 1015.5
20260504014945 6 151 0.0 0.0 0.00 0.00 0.00 59 1015.6
20260504014441 7 150 0.0 0.0 0.00 0.00 0.00 56 1015.5
20260504013938 7 150 0.0 0.0 0.00 0.00 0.00 56 1015.5
20260504013437 7 154 0.0 0.0 0.00 0.00 0.00 57 1015.6
20260504012932 7 152 0.0 0.0 0.00 0.00 0.00 57 1015.5
20260504012431 7 145 0.0 0.0 0.00 0.00 0.00 58 1015.2
20260504011928 7 142 0.0 0.0 0.00 0.00 0.00 57 1015.1
20260504011424 7 136 0.0 0.0 0.00 0.00 0.00 56 1015.3
20260504010920 8 147 0.0 0.0 0.00 0.00 0.00 54 1015.1
20260504010416 8 130 1.6 3.2 0.00 0.00 0.00 50 1015.0
20260504005913 8 72 3.2 3.2 0.00 0.00 0.00 50 1015.1
20260504005409 8 116 0.0 0.0 0.00 0.00 0.00 53 1015.0
20260504004907 8 110 1.6 3.2 0.00 0.00 0.00 53 1015.2
20260504004405 8 152 0.0 1.6 0.00 0.00 0.00 53 1015.0
20260504003901 9 116 3.2 3.2 0.00 0.00 0.00 50 1015.1
20260504003358 10 145 0.0 0.0 0.00 0.00 0.00 51 1015.0
20260504002854 10 131 0.0 0.0 0.00 0.00 0.00 49 1014.9
20260504002351 10 68 0.0 1.6 0.00 0.00 0.00 47 1015.0
20260504001849 10 107 0.0 1.6 0.00 0.00 0.00 45 1014.9
20260504001346 10 126 0.0 1.6 0.00 0.00 0.00 46 1014.8
20260504000842 11 133 0.0 0.0 0.00 0.00 0.00 46 1014.9
20260504000340 11 101 0.0 0.0 0.00 0.00 0.00 43 1014.8
20260503235837 12 100 0.0 0.0 0.00 0.00 0.00 41 1014.8
20260503235335 12 73 0.0 1.6 0.00 0.00 0.00 38 1014.8
20260503234832 13 74 0.0 1.6 0.00 0.00 0.00 38 1014.8
20260503234330 13 64 0.0 0.0 0.00 0.00 0.00 37 1014.8
20260503233827 14 139 0.0 0.0 0.00 0.00 0.00 34 1014.9
20260503233323 15 119 0.0 0.0 0.00 0.00 0.00 35 1014.6
20260503232820 15 112 0.0 0.0 0.00 0.00 0.00 31 1014.9
20260503232317 15 100 0.0 3.2 0.00 0.00 0.00 27 1014.9
20260503231815 15 144 0.0 0.0 0.00 0.00 0.00 31 1014.9
20260503231312 16 61 0.0 3.2 0.00 0.00 0.00 27 1014.6
20260503230808 16 96 0.0 3.2 0.00 0.00 0.00 29 1014.6
20260503230305 17 354 3.2 4.8 0.00 0.00 0.00 25 1014.4
20260503225802 16 216 3.2 6.4 0.00 0.00 0.00 25 1014.9
20260503225258 17 243 4.8 9.7 0.00 0.00 0.00 25 1014.6
20260503224755 17 231 6.4 9.7 0.00 0.00 0.00 25 1014.6
20260503224252 17 167 0.0 4.8 0.00 0.00 0.00 22 1014.3
20260503223750 16 227 3.2 6.4 0.00 0.00 0.00 26 1014.7
20260503223247 17 239 6.4 9.7 0.00 0.00 0.00 24 1014.4
20260503222743 17 219 1.6 6.4 0.00 0.00 0.00 22 1014.3
20260503222241 16 96 4.8 9.7 0.00 0.00 0.00 24 1014.4
20260503221739 17 296 9.7 14.5 0.00 0.00 0.00 23 1014.4
20260503221237 17 242 6.4 12.9 0.00 0.00 0.00 23 1014.4
20260503220733 17 270 6.4 16.1 0.00 0.00 0.00 24 1014.4
20260503220230 17 257 12.9 14.5 0.00 0.00 0.00 23 1014.6
20260503215727 17 216 6.4 14.5 0.00 0.00 0.00 23 1014.4
20260503215224 17 166 0.0 4.8 0.00 0.00 0.00 24 1014.7
20260503214722 16 172 0.0 11.3 0.00 0.00 0.00 26 1014.6
20260503214219 16 240 9.7 14.5 0.00 0.00 0.00 23 1014.7
20260503213717 17 263 8.0 12.9 0.00 0.00 0.00 23 1014.8
20260503213214 17 235 6.4 12.9 0.00 0.00 0.00 24 1014.8
20260503212710 17 250 6.4 16.1 0.00 0.00 0.00 23 1014.9
20260503212208 17 255 8.0 14.5 0.00 0.00 0.00 23 1014.6
20260503211706 17 205 3.2 11.3 0.00 0.00 0.00 22 1014.8
20260503211201 17 205 3.2 4.8 0.00 0.00 0.00 23 1014.9
20260503210657 16 259 9.7 14.5 0.00 0.00 0.00 24 1014.9
20260503210154 16 305 9.7 12.9 0.00 0.00 0.00 23 1015.0
20260503205650 16 249 9.7 16.1 0.00 0.00 0.00 26 1014.9
20260503205146 16 243 12.9 16.1 0.00 0.00 0.00 26 1015.0
20260503204643 16 221 8.0 11.3 0.00 0.00 0.00 23 1015.0
20260503204141 16 248 14.5 22.5 0.00 0.00 0.00 25 1014.9
20260503203637 16 234 6.4 12.9 0.00 0.00 0.00 23 1015.1
20260503203135 16 28 6.4 6.4 0.00 0.00 0.00 22 1015.0
20260503202632 16 234 8.0 16.1 0.00 0.00 0.00 22 1015.2
20260503202130 16 59 9.7 11.3 0.00 0.00 0.00 23 1015.3
20260503201628 16 218 9.7 9.7 0.00 0.00 0.00 25 1015.1
20260503201125 16 205 4.8 11.3 0.00 0.00 0.00 25 1015.3
20260503200621 16 16 4.8 9.7 0.00 0.00 0.00 25 1015.4
20260503200118 16 174 6.4 11.3 0.00 0.00 0.00 25 1015.5
20260503195615 16 213 3.2 11.3 0.00 0.00 0.00 25 1015.5
20260503195112 16 30 3.2 11.3 0.00 0.00 0.00 27 1015.7
20260503194610 16 229 4.8 9.7 0.00 0.00 0.00 28 1015.7
20260503194109 16 24 6.4 12.9 0.00 0.00 0.00 28 1015.6
20260503193607 16 278 11.3 12.9 0.00 0.00 0.00 26 1015.8
20260503193102 15 21 3.2 3.2 0.00 0.00 0.00 37 1015.8
20260503192558 15 195 4.8 12.9 0.00 0.00 0.00 24 1015.8
20260503192054 15 234 8.0 11.3 0.00 0.00 0.00 28 1015.9
20260503191551 15 285 12.9 17.7 0.00 0.00 0.00 27 1016.2
20260503191048 15 15 9.7 24.1 0.00 0.00 0.00 26 1016.1
20260503190544 15 270 11.3 16.1 0.00 0.00 0.00 30 1016.3
20260503190042 15 255 8.0 12.9 0.00 0.00 0.00 28 1016.3
20260503185538 15 296 8.0 12.9 0.00 0.00 0.00 27 1016.4
20260503185038 15 263 8.0 11.3 0.00 0.00 0.00 30 1016.5
20260503184534 15 223 11.3 14.5 0.00 0.00 0.00 30 1016.6
20260503184031 15 231 6.4 11.3 0.00 0.00 0.00 34 1016.6
20260503183528 15 8 8.0 11.3 0.00 0.00 0.00 29 1016.6
20260503183025 15 226 8.0 14.5 0.00 0.00 0.00 30 1016.8
20260503182523 14 238 6.4 11.3 0.00 0.00 0.00 27 1016.7
20260503182021 15 31 9.7 12.9 0.00 0.00 0.00 29 1016.6
20260503181518 13 242 8.0 12.9 0.00 0.00 0.00 29 1016.9
20260503181014 14 250 11.3 14.5 0.00 0.00 0.00 31 1016.8
20260503180511 14 266 20.9 27.4 0.00 0.00 0.00 28 1016.8
20260503180008 14 302 11.3 12.9 0.00 0.00 0.00 32 1016.8
20260503175506 14 256 3.2 6.4 0.00 0.00 0.00 30 1016.8
20260503175002 13 190 3.2 6.4 0.00 0.00 0.00 33 1016.8
20260503174500 13 204 6.4 17.7 0.00 0.00 0.00 32 1016.9
20260503173955 13 278 8.0 17.7 0.00 0.00 0.00 32 1017.0
20260503173451 13 238 6.4 14.5 0.00 0.00 0.00 33 1017.0
20260503172948 13 238 6.4 14.5 0.00 0.00 0.00 33 1017.1
20260503172446 13 246 6.4 14.5 0.00 0.00 0.00 32 1017.1
20260503171942 13 280 12.9 20.9 0.00 0.00 0.00 33 1017.1
20260503171438 13 183 1.6 4.8 0.00 0.00 0.00 33 1017.4
20260503170936 12 279 6.4 20.9 0.00 0.00 0.00 36 1017.4
20260503170432 13 285 12.9 16.1 0.00 0.00 0.00 33 1017.5
20260503150825 10 5 11.3 14.5 0.00 0.00 0.00 38 1018.7
20260503150321 10 237 9.7 14.5 0.00 0.00 0.00 41 1018.9
20260503140245 8 218 4.8 17.7 0.00 0.00 0.00 42 1018.7
20260503131215 7 228 6.4 11.3 0.00 0.00 0.00 47 1018.6
20260503130712 7 258 9.7 14.5 0.00 0.00 0.00 44 1018.4
20260503130209 7 179 3.2 4.8 0.00 0.00 0.00 47 1018.6
20260503120135 7 151 1.6 1.6 0.00 0.00 0.00 58 1018.4
20260503110602 2 148 0.0 0.0 0.00 0.00 0.00 77 1017.6
20260503090449 4 137 0.0 0.0 0.00 0.00 0.00 67 1016.3
20260503081416 5 140 0.0 0.0 0.00 0.00 0.00 65 1015.9
20260503080913 5 152 0.0 1.6 0.00 0.00 0.00 65 1015.9
20260503080409 5 115 1.6 4.8 0.00 0.00 0.00 65 1015.8
20260503072846 5 126 1.6 3.2 0.00 0.00 0.00 65 1015.5
20260503072343 5 122 0.0 3.2 0.00 0.00 0.00 65 1015.6
20260503071839 5 56 3.2 4.8 0.00 0.00 0.00 65 1015.5
20260503071337 5 135 1.6 3.2 0.00 0.00 0.00 65 1015.3
20260503070833 5 48 3.2 3.2 0.00 0.00 0.00 65 1015.3
20260503070331 5 154 0.0 4.8 0.00 0.00 0.00 64 1015.5
20260503060256 6 190 1.6 1.6 0.00 0.00 0.00 67 1015.3
20260503054743 5 116 6.4 9.7 0.00 0.00 0.00 67 1015.2
20260503054240 5 134 1.6 1.6 0.00 0.00 0.00 67 1015.2
20260503053738 5 237 3.2 4.8 0.00 0.00 0.00 69 1015.2
20260503053236 5 147 0.0 0.0 0.00 0.00 0.00 71 1015.1
20260503052732 5 160 1.6 3.2 0.00 0.00 0.00 71 1015.3
20260503052229 5 155 0.0 0.0 0.00 0.00 0.00 71 1015.2
20260503051724 5 159 0.0 1.6 0.00 0.00 0.00 69 1015.1
20260503051222 5 146 0.0 0.0 0.00 0.00 0.00 69 1015.2
20260503050718 5 131 1.6 1.6 0.00 0.00 0.00 69 1015.2
20260503050215 5 158 0.0 0.0 0.00 0.00 0.00 68 1015.2
20260503045713 5 144 1.6 1.6 0.00 0.00 0.00 68 1015.0
20260503045210 5 137 0.0 1.6 0.00 0.00 0.00 67 1015.2
20260503044706 5 150 0.0 1.6 0.00 0.00 0.00 65 1015.2
20260503044204 5 149 0.0 3.2 0.00 0.00 0.00 65 1015.3
20260503043700 5 110 1.6 1.6 0.00 0.00 0.00 64 1015.5
20260503043158 6 108 0.0 0.0 0.00 0.00 0.00 63 1015.5
20260503042653 6 109 3.2 3.2 0.00 0.00 0.00 63 1015.3
20260503042150 6 135 0.0 3.2 0.00 0.00 0.00 62 1015.4
20260503041646 6 63 3.2 4.8 0.00 0.00 0.00 62 1015.6
20260503041144 6 51 3.2 4.8 0.00 0.00 0.00 62 1015.2
20260503040642 6 126 0.0 0.0 0.00 0.00 0.00 61 1015.4
20260503040139 6 93 3.2 3.2 0.00 0.00 0.00 59 1015.3
20260503035635 6 93 3.2 3.2 0.00 0.00 0.00 59 1015.3
20260503035133 6 105 1.6 1.6 0.00 0.00 0.00 59 1015.2